AirNav   Air Wisconsin Up To $57,000 Bonus
 
 333 users online  

OR87 Blue Skies Farm Airport
Salem, Oregon, USA

GOING TO SALEM?


FAA INFORMATION EFFECTIVE 05 DECEMBER 2019

Location

FAA Identifier: OR87
Lat/Long: 44-57-58.0000N 122-55-21.0000W
44-57.966667N 122-55.350000W
44.9661111,-122.9225000
(estimated)
Elevation: 200 ft. / 61 m (estimated)
From city: 6 miles NE of SALEM, OR
Time zone: UTC -8 (UTC -7 during Daylight Saving Time)
Zip code: 97301

Airport Operations

Airport use: Private use. Permission required prior to landing
Activation date: 06/2009
Control tower: no
ARTCC: SEATTLE CENTER
FSS: MC MINNVILLE FLIGHT SERVICE STATION
Attendance: UNATNDD
Wind indicator: yes
Segmented circle: no

Airport Communications

WX ASOS at SLE (5 nm SW): 124.55 (503-371-1062)
WX ASOS at MMV (16 nm NW): 135.675 (503-434-9153)
WX ASOS at UAO (18 nm N): PHONE 503-678-3011

Nearby radio navigation aids

VOR radial/distance  VOR name  Freq  Var
UBGr153/23.3NEWBERG VOR/DME117.4021E
CVOr011/32.2CORVALLIS VOR/DME115.4018E

 
NDB name  Hdg/Dist  Freq  Var  ID
TURNO353/7.226617ESL ... .-..
LEWISBURG020/25.822515ELWG .-.. .-- --.

Airport Services

Runway Information

Runway 1/19

Dimensions: 1345 x 45 ft. / 410 x 14 m
Surface: turf, in good condition
RUNWAY 1  RUNWAY 19
Traffic pattern: leftright
Obstructions: 100 ft. tree, 3000 ft. from runway30 ft. pline

Airport Ownership and Management from official FAA records

Ownership: Privately-owned
Owner: BRIAN AND LINDA SCHAFFNER
6840 LARDON RD NE
SALEM, OR 97305
Phone 503-881-8840
Manager: BRIAN SCHAFFNER
6840 LARDON RD NE
SALEM, OR 97305
Phone 503-881-8840

Airport Operational Statistics

Aircraft based on the field: 1
Single engine airplanes: 1
    

Additional Remarks

FOR CD CTC SEATTLE ARTCC AT 253-351-3694.

Instrument Procedures

There are no published instrument procedures at OR87.

Some nearby airports with instrument procedures:

KSLE - McNary Field Airport (5 nm SW)
KMMV - Mc Minnville Municipal Airport (16 nm NW)
KUAO - Aurora State Airport (18 nm N)
S12 - Albany Municipal Airport (21 nm S)
KCVO - Corvallis Municipal Airport (32 nm SW)
 
Loc | Ops | Rwys | IFR | FBO | Links
Com | Nav | Svcs | Stats | Notes
Aerial photo
No photo
 
Sectional chart

 
Airport distance calculator
Flying to Blue Skies Farm Airport? Find the distance to fly.

From to OR87

Sunrise and sunset
Times for 15-Dec-2019
 Local
(UTC-8)
 Zulu
(UTC)
Morning civil twilight07:1015:10
Sunrise07:4415:44
Sunset16:3000:30
Evening civil twilight17:0301:03

Current date and time
Zulu (UTC)  15-Dec-2019 12:04:02
Local (UTC-8)  15-Dec-2019 04:04:02
 
METAR
KSLE 
5nm SW 
151156Z AUTO 00000KT 10SM OVC011 05/03 A3011 RMK AO2 SLP197 70002 T00500033 10056 20044 51018
KMMV 
17nm NW 
151153Z AUTO 00000KT 10SM OVC004 02/01 A3012 RMK AO2 SLP202 70003 I6001 T00170011 10022 21006 51018
KUAO 
18nm N 
151153Z AUTO 11003KT 1/4SM FG VV002 04/03 A3013 RMK AO2 SLP203 70003 T00390028 10044 20033 51019
TAF
KSLE 
5nm SW 
151131Z 1512/1612 00000KT P6SM OVC007 FM151900 17004KT P6SM OVC007 FM152100 20004KT P6SM SCT025 OVC050 FM152200 20005KT P6SM -RA SCT030 OVC050 FM160500 11005KT 6SM -RA BR SCT025 OVC040
KUAO 
18nm N 
151131Z 1512/1612 00000KT 1/4SM FG VV002 FM151900 20002KT 4SM BR OVC007 FM152100 19002KT 6SM BR OVC015 FM152300 00000KT P6SM OVC050 FM160000 20003KT P6SM -RA SCT020 BKN050 FM160500 00000KT 5SM -RA BR SCT020 OVC040
NOTAMs
Click for the latest NOTAMs
NOTAMs are issued by the DoD/FAA and will open in a separate window not controlled by AirNav.

 

 
 

Would you like to see your business listed on this page?

 If your business provides an interesting product or service to pilots, flight crews, aircraft, or users of the Blue Skies Farm Airport, you should consider listing it here.  To start the listing process, click on the button below
 
Add a business
 

Other Pages about Blue Skies Farm Airport

Update a link
 
Copyright © AirNav, LLC. All rights reserved. Privacy Policy  Contact